KC3MN Weather Reports


Display with metric or nautical units.
time (UTC)temp
F
wind
direction
speed
MPH
gust
MPH
rain 1hr
in
rain 24hr
in
rain mn
in
humidity
%
barometer
mb
20260509223054 58 335 1.0 3.0 0.00 0.34 0.34 79 1008.6
20260509221543 59 279 1.0 4.0 0.00 0.34 0.34 77 1008.5
20260509220052 59 320 1.0 6.0 0.00 0.34 0.34 79 1008.5
20260509214549 59 280 0.0 6.0 0.00 0.34 0.34 80 1008.7
20260509213108 57 210 0.0 10.0 0.00 0.34 0.34 83 1008.8
20260509211601 56 0 1.0 9.0 0.00 0.34 0.34 85 1009.0
20260509210053 55 220 2.0 5.0 0.00 0.34 0.34 87 1009.1
20260509204551 55 0 1.0 6.0 0.01 0.34 0.34 87 1009.3
20260509203055 55 0 1.0 4.0 0.02 0.34 0.34 87 1009.3
20260509201558 55 280 0.0 2.0 0.04 0.34 0.34 88 1009.2
20260509200055 54 0 0.0 3.0 0.06 0.34 0.34 88 1009.2
20260509194559 53 200 1.0 7.0 0.06 0.34 0.33 88 1009.6
20260509193045 53 0 1.0 6.0 0.07 0.33 0.32 87 1009.8
20260509191604 54 348 1.0 3.0 0.06 0.31 0.30 87 1010.0
20260509190047 54 336 0.0 4.0 0.07 0.29 0.28 87 1010.2
20260509184601 53 0 0.0 8.0 0.08 0.28 0.27 87 1010.3
20260509183055 54 123 0.0 3.0 0.07 0.26 0.25 87 1010.3
20260509181559 54 0 0.0 4.0 0.06 0.25 0.24 87 1010.4
20260509174552 54 0 0.0 2.0 0.03 0.20 0.19 86 1010.3
20260509173057 54 269 1.0 5.0 0.03 0.19 0.18 86 1010.2
20260509171552 54 255 1.0 5.0 0.04 0.19 0.18 87 1010.2
20260509170044 54 193 1.0 8.0 0.04 0.18 0.17 87 1010.2
20260509164547 54 0 0.0 2.0 0.03 0.18 0.16 87 1010.2
20260509163052 54 34 0.0 2.0 0.03 0.17 0.15 86 1010.4
20260509161557 55 0 0.0 3.0 0.01 0.15 0.13 85 1010.4
20260509160046 55 217 0.0 2.0 0.02 0.15 0.13 86 1010.4
20260509154548 55 0 0.0 2.0 0.02 0.15 0.13 86 1010.5
20260509153055 54 0 0.0 1.0 0.03 0.14 0.12 87 1010.6
20260509151548 54 0 0.0 1.0 0.04 0.14 0.12 88 1010.6
20260509150049 53 0 0.0 0.0 0.03 0.13 0.11 88 1010.7
20260509144550 53 0 0.0 1.0 0.04 0.13 0.11 88 1010.9
20260509143043 53 0 0.0 0.0 0.02 0.11 0.09 88 1011.2
20260509141554 53 0 0.0 1.0 0.03 0.10 0.08 88 1011.0
20260509134541 52 0 0.0 0.0 0.02 0.09 0.07 88 1010.8
20260509133046 52 0 0.0 0.0 0.02 0.08 0.06 89 1010.9
20260509131545 52 0 0.0 0.0 0.01 0.07 0.05 89 1010.7
20260509130044 51 0 0.0 1.0 0.01 0.07 0.05 89 1010.4
20260509124551 51 0 0.0 2.0 0.01 0.07 0.05 89 1010.4
20260509123042 51 0 0.0 2.0 0.00 0.06 0.04 90 1010.5
20260509121548 50 0 0.0 3.0 0.00 0.06 0.04 91 1010.6
20260509120046 50 0 0.0 2.0 0.00 0.06 0.04 91 1010.6
20260509114544 50 0 0.0 2.0 0.00 0.06 0.04 91 1010.8
20260509113044 49 0 0.0 2.0 0.00 0.06 0.04 91 1010.9
20260509111554 49 0 0.0 0.0 0.00 0.06 0.04 91 1011.0
20260509110048 49 0 0.0 0.0 0.00 0.06 0.04 91 1011.1
20260509104554 49 0 0.0 0.0 0.00 0.06 0.04 91 1010.8
20260509103104 0 0.0 0.0 0.00 0.06 0.04 1010.8
20260509101559 0 0.0 0.0 0.00 0.06 0.04 1011.1
20260509100051 0 0.0 0.0 0.00 0.06 0.04 1011.0
20260509094554 0 0.0 0.0 0.00 0.06 0.04 1010.8
20260509093051 0 0.0 0.0 0.00 0.06 0.04 1010.8
20260509091555 0 0.0 0.0 0.00 0.06 0.04 1010.9
20260509090058 0 0.0 0.0 0.00 0.06 0.04 1011.1
20260509084600 0 0.0 0.0 0.00 0.06 0.04 1011.4
20260509083107 0 0.0 0.0 0.00 0.06 0.04 1011.7
20260509081543 0 0.0 0.0 0.00 0.06 0.04 1011.7
20260509080051 49 0 0.0 0.0 0.00 0.06 0.04 90 1011.7
20260509074606 49 0 0.0 0.0 0.00 0.06 0.04 90 1011.5
20260509073101 49 0 0.0 0.0 0.00 0.06 0.04 90 1011.5
20260509071552 48 0 0.0 0.0 0.00 0.06 0.04 90 1011.5
20260509070055 49 0 0.0 2.0 0.01 0.06 0.04 90 1011.5
20260509064547 49 0 0.0 0.0 0.02 0.06 0.04 89 1011.8
20260509063057 49 0 0.0 0.0 0.03 0.06 0.04 89 1012.2
20260509061545 49 0 0.0 0.0 0.03 0.06 0.04 89 1012.7
20260509054543 49 0 0.0 0.0 0.01 0.06 0.02 89 1012.8
20260509053054 48 0 0.0 0.0 0.00 0.05 0.01 88 1012.2
20260509051548 48 0 0.0 2.0 0.00 0.05 0.01 88 1011.8
20260509050046 48 0 0.0 0.0 0.01 0.05 0.01 88 1011.7
20260509044551 48 0 0.0 0.0 0.01 0.08 0.01 88 1012.1
20260509043054 48 0 0.0 1.0 0.01 0.08 0.01 87 1012.0
20260509041546 48 202 0.0 4.0 0.01 0.08 0.01 87 1012.1
20260509040059 47 0 0.0 0.0 0.00 0.07 0.00 86 1012.2
20260509034544 47 0 0.0 0.0 0.00 0.08 0.07 86 1012.3
20260509033110 47 0 0.0 0.0 0.00 0.08 0.07 86 1012.3
20260509031554 47 0 0.0 0.0 0.00 0.08 0.07 86 1012.4
20260509030048 47 0 0.0 0.0 0.00 0.08 0.07 85 1012.3
20260509024556 48 0 0.0 0.0 0.00 0.08 0.07 84 1012.4
20260509023050 48 0 0.0 0.0 0.00 0.08 0.07 84 1012.2
20260509021544 49 0 0.0 0.0 0.00 0.08 0.07 83 1012.5
20260509014546 50 0 0.0 0.0 0.00 0.08 0.07 82 1012.1
20260509013055 51 0 0.0 0.0 0.00 0.08 0.07 82 1012.1
20260509011555 51 0 0.0 0.0 0.00 0.08 0.07 81 1012.2
20260509010056 51 0 0.0 0.0 0.00 0.08 0.07 80 1011.7
20260509004554 51 0 0.0 1.0 0.00 0.08 0.07 78 1011.6
20260509003056 52 0 0.0 2.0 0.00 0.08 0.07 76 1011.4
20260509001548 53 0 0.0 2.0 0.00 0.08 0.07 75 1011.3
20260509000046 53 0 0.0 0.0 0.00 0.08 0.07 72 1011.3
20260508234549 54 52 0.0 0.0 0.00 0.08 0.07 69 1011.2
20260508233104 54 0 0.0 2.0 0.00 0.08 0.07 66 1011.1
20260508231551 54 0 0.0 2.0 0.00 0.08 0.07 66 1011.0
20260508230052 54 156 1.0 3.0 0.00 0.08 0.07 66 1010.9
20260508224553 54 0 0.0 2.0 0.00 0.08 0.07 68 1011.0